Terminal Aerodrome Forecast
Issued by NWS

Home | Current Version | Previous Version | Text Only | Print | Product List | Glossary On
Versions: 1 2 3 4 5 6 7 8 9 10 11 12 13 14 15 16 17 18 19 20 21 22 23 24 25 26 27 28 29 30 31 32 33 34 35 36 37 38 39 40 41 42 43 44
000
FTUS45 KSLC 020541
TAFEVW
TAF
KEVW 020541Z 0206/0306 08007KT P6SM VCSH OVC035
     FM021200 04005KT 5SM -SHSN SCT010 BKN025
     FM030200 26010KT P6SM VCSH SCT010 BKN025=

USA.gov is the U.S. government's official web portal to all federal, state and local government web resources and services.